Regional Weather Roundup
Issued by NWS State College, PA

Home | Current Version | Previous Version | Graphics & Text | Print | Product List | Glossary On
Versions: 1 2 3 4 5 6 7 8 9 10 11 12 13 14 15 16 17 18 19 20 21 22 23 24 25 26 27 28 29 30 31 32 33 34 35 36 37 38 39 40 41 42 43 44 45 46 47 48 49 50
000
ASUS41 KCTP 292210
RWRCTP

REGIONAL WEATHER ROUNDUP
NATIONAL WEATHER SERVICE STATE COLLEGE PA
500 PM EST THU JAN 29 2015

Note: "fair" indicates few or no clouds below 12,000 feet with no
significant weather and/or obstructions to visibility.

* = STATION THAT DOES NOT REPORT PRECIPITATION /E.G. RAIN...SNOW...ETC/
    THUNDER OR FOG.

PAZ002>004-007>009-013>016-020>023-029>032-292300-
WESTERN PENNSYLVANIA

CITY           SKY/WX    TMP DP  RH WIND       PRES   REMARKS
ERIE           LGT SNOW  35  31  85 S13G22    29.73R FOG
MEADVILLE      LGT RAIN  34  32  92 S12       29.72S VSB 3/4
FRANKLIN*      CLOUDY    34  30  86 SW7       29.76S
NEW CASTLE     CLOUDY    36  34  93 VRB5      29.77F FOG
BEAVER COUNTY  CLOUDY    37  34  87 S8        29.76F
BUTLER*        CLOUDY    34  32  93 SE7       29.80S
PITTSBURGH INT DRIZZLE   38  35  89 SW8       29.79R FOG
PITTSBURGH     CLOUDY    36  31  82 S10       29.80S HAZE
INDIANA*       CLOUDY    34  34 100 S9        29.85S FOG
LATROBE        LGT RAIN  41  36  81 S14       29.84S
WASHINGTON CO* CLOUDY    39  34  81 SW12      29.81F
$$

PAZ004>006-010>012-017>019-024>028-033>037-041-042-045-046-049>053-292300-
CENTRAL PENNSYLVANIA

CITY           SKY/WX    TMP DP  RH WIND       PRES   REMARKS
BRADFORD       LGT SNOW  25  21  85 S10       29.73F FOG     WCI  15
DUBOIS         CLOUDY    28  26  92 SE8       29.77S FOG
CLEARFIELD     FLURRIES  23  20  88 CALM      29.85F
JOHNSTOWN      FRZ RAIN  26  24  92 S8        29.81F FOG
ALTOONA        FRZ RAIN  25  21  85 S12       29.92F FOG     WCI  14
STATE COLLEGE  FLURRIES  23  19  86 SW8       29.93S WCI  14
WILLIAMSPORT   LGT SNOW  25  18  74 S12G23    29.98F VSB 1   WCI  14
SELINSGROVE    LGT SNOW  27  21  78 S7        30.02S VSB 3/4
FT INDIANTOWN  CLOUDY    30  12  47 S8        30.06F
CAPITAL CITY   LGT SNOW  28  20  71 S8        30.07F VSB 3/4
HARRISBURG     LGT SNOW  27  22  81 S9G21     30.06F VSB 3/4
YORK           HVY SNOW  27  23  85 SE6       30.05F VSB 1/4
$$

PAZ038>040-043-044-047-048-054-055-060>062-067>071-292300-
EASTERN PENNSYLVANIA

CITY           SKY/WX    TMP DP  RH WIND       PRES   REMARKS
SCRANTON       CLOUDY    31   3  30 S5        29.99S
MOUNT POCONO   CLOUDY    22   3  44 SE10      29.96F WCI  11
ALLENTOWN      CLOUDY    31   7  36 SE7       30.09S
QUAKERTOWN*    CLOUDY    30  10  43 S6        30.09S
READING        CLOUDY    31  10  41 S6        30.07S
LANCASTER      CLOUDY    30  13  49 S8        30.07S
COATESVILLE    CLOUDY    30  16  55 SE7       30.07S
POTTSTOWN      CLOUDY    31  10  41 VRB5      30.10F
BLUE BELL      CLOUDY    34  14  44 SE5       30.09F
DOYLESTOWN     CLOUDY    29  10  45 CALM      30.10S
WILLOW GROVE   NOT AVBL
NORTH PHILA    CLOUDY    35  10  35 SE5       30.13F
PHILADELPHIA   CLOUDY    34  10  37 S8        30.13F
$$


USA.gov is the U.S. government's official web portal to all federal, state and local government web resources and services.